Kazan, Russia

4:18 PM MSK on December 15, 2019 (GMT +0300)
Kazan

Weather History for UWKD - October, 2019

Change the Weather History Date:

Wednesday, October 16, 2019

  Actual Average (WUND) Record (WUND)
Temperature  
Mean Temperature 36 °F -  
Max Temperature 39 °F - - (-1)
Min Temperature 33 °F - - (-1)
Degree Days  
Heating Degree Days 29    
Moisture  
Dew Point 31 °F    
Average Humidity 79    
Maximum Humidity 93    
Minimum Humidity 61    
Precipitation  
Precipitation 0.00 in - - ()
Sea Level Pressure  
Sea Level Pressure 30.29 in    
Wind  
Wind Speed 9 mph ()    
Max Wind Speed 18 mph    
Max Gust Speed 22 mph    
Visibility 6.2 miles    
Events      
Averages and records for this station are not official NWS values.
T = Trace of Precipitation, MM = Missing Value Source: Averaged Metar Reports

Daily Weather History Graph

Daily Weather History Graph

Search for Another Location

Airport or City:

Astronomy

Oct. 16, 2019 Rise Set
Actual Time 6:14 AM MSK 4:41 PM MSK
Civil Twilight 5:37 AM MSK 5:18 PM MSK
Nautical Twilight 4:54 AM MSK 6:01 PM MSK
Astronomical Twilight 4:11 AM MSK 6:44 PM MSK
Moon 6:01 PM MSK (10/16) 8:38 AM MSK (10/16)
Length of Visible Light 11h 41m
Length of Day
10h 27m
Waning Gibbous, 94% of the Moon is Illuminated
Oct 16
Waning Gibbous
Oct 21
Last Quarter
Oct 28
New
Nov 4
First Quarter
Nov 12
Full

Hourly Weather History & Observations

Time (MSK) Temp. Windchill Dew Point Humidity Pressure Visibility Wind Dir Wind Speed Gust Speed Precip Events Conditions
12:00 AM 38 °F - 33 °F 74% 30.12 in 6 mi NW 6.7 mph - -   Partly Cloudy
12:00 AM 37.4 °F 29.9 °F 33.8 °F 87% 30.06 in 6.2 mi NW 11.2 mph 22.4 mph N/A   Mostly Cloudy
12:30 AM 37.4 °F 27.6 °F 33.8 °F 87% 30.09 in 6.2 mi NW 17.9 mph - N/A   Mostly Cloudy
1:00 AM 37.4 °F 29.9 °F 32.0 °F 81% 30.09 in 6.2 mi NW 11.2 mph 22.4 mph N/A   Mostly Cloudy
1:30 AM 37.4 °F 29.9 °F 32.0 °F 81% 30.09 in 6.2 mi NW 11.2 mph 22.4 mph N/A   Mostly Cloudy
2:00 AM 37.4 °F 29.9 °F 32.0 °F 81% 30.09 in 6.2 mi NNW 11.2 mph 22.4 mph N/A   Mostly Cloudy
2:30 AM 35.6 °F 27.7 °F 30.2 °F 81% 30.12 in 6.2 mi NNW 11.2 mph 22.4 mph N/A   Mostly Cloudy
3:00 AM 36 °F - 30 °F 72% 30.18 in 6 mi NW 4.5 mph - -   Mostly Cloudy
3:00 AM 35.6 °F 27.7 °F 32.0 °F 87% 30.15 in 6.2 mi NNW 11.2 mph 22.4 mph N/A   Mostly Cloudy
3:30 AM 35.6 °F 27.7 °F 30.2 °F 81% 30.15 in 6.2 mi NNW 11.2 mph 22.4 mph N/A   Mostly Cloudy
4:00 AM 35.6 °F 27.7 °F 30.2 °F 81% 30.15 in 6.2 mi NNW 11.2 mph 22.4 mph N/A   Mostly Cloudy
4:30 AM 35.6 °F 27.7 °F 30.2 °F 81% 30.18 in 6.2 mi NNW 11.2 mph 22.4 mph N/A   Mostly Cloudy
5:00 AM 35.6 °F 27.7 °F 30.2 °F 81% 30.18 in 6.2 mi NNW 11.2 mph 22.4 mph N/A   Mostly Cloudy
6:00 AM 35 °F - 29 °F 72% 30.25 in 6 mi WNW 6.7 mph - -   Overcast
6:00 AM 33.8 °F 24.5 °F 30.2 °F 87% 30.21 in 6.2 mi NW 13.4 mph - N/A   Mostly Cloudy
6:30 AM 33.8 °F 25.4 °F 30.2 °F 87% 30.21 in 6.2 mi NNW 11.2 mph - N/A   Mostly Cloudy
7:30 AM 33.8 °F 24.5 °F 30.2 °F 87% 30.24 in 6.2 mi NNW 13.4 mph - N/A   Mostly Cloudy
8:00 AM 35.6 °F 26.0 °F 30.2 °F 81% 30.27 in 6.2 mi NW 15.7 mph - N/A   Overcast
8:30 AM 35.6 °F 27.7 °F 30.2 °F 81% 30.27 in 6.2 mi NNW 11.2 mph - N/A   Overcast
9:00 AM 35 °F - 31 °F 79% 30.33 in 6 mi NW 4.5 mph - -   Overcast
9:00 AM 35.6 °F 26.8 °F 30.2 °F 81% 30.27 in 6.2 mi NNW 13.4 mph - N/A   Overcast
9:30 AM 35.6 °F 27.7 °F 30.2 °F 81% 30.30 in 6.2 mi North 11.2 mph - N/A   Overcast
10:00 AM 35.6 °F 26.8 °F 30.2 °F 81% 30.30 in 6.2 mi NNW 13.4 mph - N/A   Overcast
10:30 AM 35.6 °F 27.7 °F 32.0 °F 87% 30.30 in 6.2 mi NNW 11.2 mph - N/A   Overcast
11:00 AM 35.6 °F 26.8 °F 30.2 °F 81% 30.33 in 6.2 mi NW 13.4 mph - N/A   Overcast
11:30 AM 37.4 °F 29.1 °F 30.2 °F 75% 30.33 in 6.2 mi NW 13.4 mph - N/A   Overcast
12:00 PM 38 °F - 30 °F 64% 30.37 in 6 mi NW 6.7 mph - -   Mostly Cloudy
12:30 PM 37.4 °F 29.1 °F 30.2 °F 75% 30.33 in 6.2 mi NW 13.4 mph - N/A   Overcast
1:00 PM 39.2 °F 31.3 °F 32.0 °F 75% 30.33 in 6.2 mi NW 13.4 mph - N/A   Overcast
1:30 PM 39.2 °F 31.3 °F 30.2 °F 70% 30.33 in 6.2 mi NW 13.4 mph - N/A   Overcast
2:00 PM 37.4 °F 29.9 °F 30.2 °F 75% 30.36 in 6.2 mi NW 11.2 mph - N/A   Overcast
2:30 PM 39.2 °F 32.2 °F 30.2 °F 70% 30.36 in 6.2 mi WNW 11.2 mph - N/A   Overcast
3:00 PM 39.2 °F 32.2 °F 30.2 °F 70% 30.36 in 6.2 mi NW 11.2 mph - N/A   Overcast
3:30 PM 37.4 °F 30.9 °F 30.2 °F 75% 30.36 in 6.2 mi WNW 8.9 mph - N/A   Overcast
4:00 PM 37.4 °F 30.9 °F 30.2 °F 75% 30.36 in 6.2 mi WNW 8.9 mph - N/A   Overcast
4:30 PM 37.4 °F 29.9 °F 32.0 °F 81% 30.36 in 6.2 mi NW 11.2 mph - N/A   Overcast
5:00 PM 37.4 °F 30.9 °F 30.2 °F 75% 30.36 in 6.2 mi NW 8.9 mph - N/A   Overcast
5:30 PM 37.4 °F 32.2 °F 28.4 °F 70% 30.36 in 6.2 mi NW 6.7 mph - N/A   Overcast
6:00 PM 38 °F - 29 °F 61% 30.42 in 6 mi WNW 2.2 mph - -   Overcast
6:00 PM 37.4 °F 32.2 °F 30.2 °F 75% 30.39 in 6.2 mi North 6.7 mph - N/A   Overcast
6:30 PM 37.4 °F 33.9 °F 30.2 °F 75% 30.39 in 6.2 mi North 4.5 mph - N/A   Overcast
7:00 PM 37.4 °F - 30.2 °F 75% 30.39 in 6.2 mi Variable 2.2 mph - N/A   Overcast
7:30 PM 37.4 °F 33.9 °F 28.4 °F 70% 30.39 in 6.2 mi WNW 4.5 mph - N/A   Overcast
8:00 PM 35.6 °F - 30.2 °F 81% 30.39 in 6.2 mi West 2.2 mph - N/A   Scattered Clouds
8:30 PM 33.8 °F - 30.2 °F 87% 30.39 in 6.2 mi West 2.2 mph - N/A   Partly Cloudy
9:00 PM 35.6 °F - 30.2 °F 81% 30.39 in - SSW 2.2 mph - N/A   Clear
9:30 PM 35.6 °F 31.8 °F 30.2 °F 81% 30.36 in - South 4.5 mph - N/A   Clear
10:00 PM 35.6 °F 31.8 °F 32.0 °F 87% 30.39 in - SSW 4.5 mph - N/A   Clear
10:30 PM 35.6 °F 31.8 °F 30.2 °F 81% 30.36 in - SSE 4.5 mph - N/A   Clear
11:00 PM 33.8 °F 29.7 °F 30.2 °F 87% 30.39 in 6.2 mi South 4.5 mph - N/A   Partly Cloudy
11:30 PM 33.8 °F 29.7 °F 32.0 °F 93% 30.39 in 6.2 mi South 4.5 mph - N/A   Scattered Clouds